DW5978 Whyalla SA AU current weather conditions

sailwx.info

Wind from 271 at 0 knots gusting 4

Air temperature 17.2° C
Dewpoint 9.1° C

Last reported at 2016-Feb-12 15:44 UTC.
Time now 2016-Feb-12 16:12 UTC

Location: S 33°01' E 137°32'.
View on Google Maps.

See reports from other nearby stations

  
Tides and Currents Weather Stations Pressure Air Temp Water Temp Dewpoint Dewpoint Depression Visibility Wind Speed Wind Dir Waves Ship Positions
date/time (UTC)wind fromknots sea level pressurealtimeterstation pressurevisibilityair tempwater tempwave heightnotes
2016-Feb-12 15:44 271 0 gusting 4 17.2
2016-Feb-12 15:30 307 0 gusting 1 17.2
2016-Feb-12 15:14 308 17.2
2016-Feb-12 14:58 308 18.3
2016-Feb-12 14:43 308 0 gusting 1 18.3
2016-Feb-12 14:28 307 18.9
2016-Feb-12 14:13 307 0 gusting 0 17.8
2016-Feb-12 13:58 308 18.9
2016-Feb-12 13:43 308 0 gusting 1 19.4
2016-Feb-12 13:28 307 0 gusting 1 18.9
2016-Feb-12 13:13 307 0 gusting 2 19.4
2016-Feb-12 12:58 285 0 gusting 0 18.9
2016-Feb-12 12:43 285 0 gusting 1 19.4
2016-Feb-12 12:28 283 0 gusting 1 20.6
2016-Feb-12 12:13 246 0 gusting 2 21.7
2016-Feb-12 11:58 238 1 gusting 4 22.2
2016-Feb-12 11:43 238 1 gusting 3 22.2
2016-Feb-12 11:28 219 1 gusting 4 22.8
2016-Feb-12 11:13 215 2 gusting 6 22.8
2016-Feb-12 10:58 195 3 gusting 6 23.3
2016-Feb-12 10:43 211 3 gusting 7 23.3
2016-Feb-12 10:28 179 6 gusting 10 23.3
2016-Feb-12 10:13 187 6 gusting 10 23.9
2016-Feb-12 09:58 165 4 gusting 14 23.9
2016-Feb-12 09:43 180 7 gusting 14 24.4
2016-Feb-12 09:28 190 5 gusting 13 25.6
2016-Feb-12 09:13 158 6 gusting 14 26.1
2016-Feb-12 08:58 190 5 gusting 12 27.2
2016-Feb-12 08:43 148 4 gusting 9 27.8
2016-Feb-12 08:28 193 4 gusting 9 28.9
2016-Feb-12 08:13 165 5 gusting 8 28.9
2016-Feb-12 07:58 211 5 gusting 11 28.9
2016-Feb-12 07:43 150 4 gusting 7 30.0
2016-Feb-12 07:28 143 4 gusting 10 30.0
2016-Feb-12 07:13 165 5 gusting 9 30.6
2016-Feb-12 06:58 141 3 gusting 7 30.6
2016-Feb-12 06:43 105 4 gusting 9 30.6
2016-Feb-12 06:28 142 4 gusting 10 30.6
2016-Feb-12 06:13 120 6 gusting 12 30.0
2016-Feb-12 05:59 114 5 gusting 10 30.0
2016-Feb-12 05:43 139 6 gusting 12 30.0
2016-Feb-12 05:28 150 6 gusting 13 30.6
2016-Feb-12 05:13 108 3 gusting 9 31.1
2016-Feb-12 04:58 142 5 gusting 11 31.1
2016-Feb-12 04:43 148 4 gusting 8 31.1
2016-Feb-12 04:28 129 5 gusting 8 30.6
2016-Feb-12 04:13 158 4 gusting 9 30.0
2016-Feb-12 03:57 170 4 gusting 9 30.0
2016-Feb-12 03:42 144 4 gusting 9 29.4
2016-Feb-12 03:27 143 5 gusting 8 29.4
2016-Feb-12 03:12 143 4 gusting 8 29.4
2016-Feb-12 02:57 156 5 gusting 10 28.9
2016-Feb-12 02:42 159 4 gusting 10 27.8
2016-Feb-12 02:27 153 5 gusting 10 27.2
2016-Feb-12 02:12 154 3 gusting 9 27.2
2016-Feb-12 01:57 214 4 gusting 11 26.7
2016-Feb-12 01:42 219 4 gusting 9 26.7
2016-Feb-12 01:27 183 5 gusting 8 26.1
2016-Feb-12 01:12 122 3 gusting 7 26.1
2016-Feb-12 00:57 129 4 gusting 9 25.6
2016-Feb-12 00:42 162 5 gusting 10 25.0
2016-Feb-12 00:27 210 4 gusting 9 24.4
2016-Feb-12 00:12 238 6 gusting 9 23.9
2016-Feb-11 23:57 228 4 gusting 10 23.9
2016-Feb-11 23:42 217 6 gusting 11 23.3
2016-Feb-11 23:27 193 6 gusting 9 22.8
2016-Feb-11 23:11 173 4 gusting 11 22.2
2016-Feb-11 22:56 168 6 gusting 11 22.2
2016-Feb-11 22:41 190 4 gusting 11 21.7
2016-Feb-11 22:26 197 4 gusting 12 21.1
2016-Feb-11 22:11 195 6 gusting 9 20.6
2016-Feb-11 21:56 207 4 gusting 7 20.0
2016-Feb-11 21:41 186 2 gusting 5 18.9
2016-Feb-11 21:26 221 1 gusting 4 18.3
2016-Feb-11 21:11 233 0 gusting 2 17.8
2016-Feb-11 20:56 238 0 gusting 2 17.2
2016-Feb-11 20:41 226 0 gusting 2 16.7
2016-Feb-11 20:26 221 17.2
2016-Feb-11 20:11 221 17.2
2016-Feb-11 19:56 221 0 gusting 2 17.2
2016-Feb-11 19:41 214 1 gusting 3 17.2
2016-Feb-11 19:26 232 1 gusting 4 17.2
2016-Feb-11 19:11 229 1 gusting 4 17.8
2016-Feb-11 18:56 194 1 gusting 5 17.8
2016-Feb-11 18:41 210 3 gusting 6 17.8
2016-Feb-11 18:26 195 1 gusting 6 17.8
2016-Feb-11 18:11 204 2 gusting 4 17.8
2016-Feb-11 17:56 210 1 gusting 5 17.8
2016-Feb-11 17:41 235 2 gusting 6 18.3
2016-Feb-11 17:26 210 2 gusting 5 18.3
2016-Feb-11 17:11 215 2 gusting 4 18.3
2016-Feb-11 16:56 210 1 gusting 7 18.3
2016-Feb-11 16:41 197 3 gusting 6 18.3
2016-Feb-11 16:26 235 3 gusting 6 18.9
2016-Feb-11 16:11 218 1 gusting 3 18.9
2016-Feb-11 15:56 215 1 gusting 6 18.9
2016-Feb-11 15:41 212 2 gusting 6 19.4
2016-Feb-11 15:26 212 2 gusting 5 19.4
2016-Feb-11 15:11 173 3 gusting 7 19.4
2016-Feb-11 14:56 201 4 gusting 9 20.0
2016-Feb-11 14:41 176 4 gusting 9 20.0
2016-Feb-11 14:26 214 4 gusting 8 20.6
2016-Feb-11 14:10 210 1 gusting 7 21.1
2016-Feb-11 13:55 179 5 gusting 9 21.1
2016-Feb-11 13:40 229 5 gusting 11 21.7
2016-Feb-11 13:25 229 6 gusting 8 21.7
2016-Feb-11 13:10 195 4 gusting 11 22.2
2016-Feb-11 12:55 170 4 gusting 8 21.7
2016-Feb-11 12:40 214 4 gusting 9 22.2
2016-Feb-11 12:25 220 5 gusting 12 22.2
2016-Feb-11 12:10 194 2 gusting 13 22.2
2016-Feb-11 11:55 179 6 gusting 13 22.8
2016-Feb-11 11:40 207 6 gusting 13 23.3
2016-Feb-11 11:25 175 7 gusting 15 23.3
2016-Feb-11 11:10 225 6 gusting 13 23.9
2016-Feb-11 10:55 210 6 gusting 14 24.4
2016-Feb-11 10:40 215 6 gusting 14 24.4
2016-Feb-11 10:25 257 4 gusting 13 25.0
2016-Feb-11 10:10 191 7 gusting 13 25.6
2016-Feb-11 09:55 222 4 gusting 15 26.1
2016-Feb-11 09:40 215 6 gusting 15 26.1
2016-Feb-11 09:25 207 6 gusting 14 26.7
2016-Feb-11 09:10 181 7 gusting 14 27.2
2016-Feb-11 08:55 210 7 gusting 15 27.8
2016-Feb-11 08:40 181 11 gusting 19 27.8
2016-Feb-11 08:25 170 9 gusting 19 28.3
2016-Feb-11 08:10 210 11 gusting 19 28.3
2016-Feb-11 07:56 180 6 gusting 17 28.9
2016-Feb-11 07:40 180 8 gusting 14 28.9
2016-Feb-11 07:25 149 7 gusting 19 28.9
2016-Feb-11 07:10 179 10 gusting 19 29.4
2016-Feb-11 06:55 174 10 gusting 21 29.4
2016-Feb-11 06:40 203 10 gusting 17 29.4
2016-Feb-11 06:25 161 9 gusting 21 29.4
2016-Feb-11 06:10 215 11 gusting 18 29.4
2016-Feb-11 05:55 215 9 gusting 15 30.0
2016-Feb-11 05:40 212 9 gusting 20 30.0
2016-Feb-11 05:25 141 7 gusting 16 31.1
2016-Feb-11 05:10 208 10 gusting 17 30.6
2016-Feb-11 04:55 176 10 gusting 18 30.0
2016-Feb-11 04:40 190 7 gusting 14 30.0
2016-Feb-11 04:25 210 6 gusting 13 30.0
2016-Feb-11 04:10 204 8 gusting 13 29.4
2016-Feb-11 03:55 264 6 gusting 13 29.4
2016-Feb-11 03:40 204 6 gusting 13 28.9
2016-Feb-11 03:24 158 8 gusting 14 28.3
2016-Feb-11 03:09 215 5 gusting 9 28.3
2016-Feb-11 02:54 146 7 gusting 12 27.8
2016-Feb-11 02:40 195 6 gusting 13 27.2
2016-Feb-11 02:24 173 6 gusting 12 26.7
2016-Feb-11 02:09 105 5 gusting 12 26.7
2016-Feb-11 01:54 193 6 gusting 12 26.1
2016-Feb-11 01:39 148 7 gusting 13 25.0
2016-Feb-11 01:24 198 7 gusting 13 24.4
2016-Feb-11 01:09 180 6 gusting 16 23.9
2016-Feb-11 00:54 208 7 gusting 14 23.9
2016-Feb-11 00:39 210 7 gusting 16 23.3
2016-Feb-11 00:24 141 7 gusting 13 23.3
2016-Feb-11 00:09 168 6 gusting 14 23.3
2016-Feb-10 23:54 162 7 gusting 14 22.8
2016-Feb-10 23:39 127 6 gusting 14 22.8
2016-Feb-10 23:24 235 6 gusting 17 22.2
2016-Feb-10 23:09 212 6 gusting 13 21.7
2016-Feb-10 22:54 144 7 gusting 13 21.7
2016-Feb-10 22:39 179 6 gusting 16 21.7
2016-Feb-10 22:25 201 6 gusting 13 21.1
2016-Feb-10 22:10 150 7 gusting 14 21.1
2016-Feb-10 21:55 139 6 gusting 13 20.6
2016-Feb-10 21:40 186 6 gusting 13 20.6
2016-Feb-10 21:25 197 3 gusting 9 20.0
2016-Feb-10 21:09 171 5 gusting 10 19.4
2016-Feb-10 20:54 150 3 gusting 6 18.3
2016-Feb-10 20:38 240 1 gusting 3 17.2
2016-Feb-10 20:24 238 0 gusting 3 17.2
2016-Feb-10 20:09 233 0 gusting 3 17.2
2016-Feb-10 19:54 249 1 gusting 3 17.2
2016-Feb-10 19:39 257 1 gusting 3 17.2
2016-Feb-10 19:24 262 0 gusting 2 17.2
2016-Feb-10 19:09 264 1 gusting 3 17.8
2016-Feb-10 18:54 228 1 gusting 3 17.2
2016-Feb-10 18:39 240 0 gusting 2 17.8
2016-Feb-10 18:24 225 0 gusting 3 18.3
2016-Feb-10 18:09 271 0 gusting 2 18.3
2016-Feb-10 17:09 217 2 gusting 5 18.3
2016-Feb-10 16:54 226 2 gusting 6 18.3
2016-Feb-10 16:39 215 3 gusting 6 18.3
2016-Feb-10 16:24 181 2 gusting 5 18.3
2016-Feb-10 16:09 190 3 gusting 7 18.3